Location: Barruelo
(41.2448°N, 3.8231°W)
Time: 22:06:14
(UTC+00:00)

Cosmos 2219 - Visible Passes

Search period start: 12 March 2026 00:00
Search period end: 22 March 2026 00:00
Orbit: 832 x 859 km, 71.1° (Epoch: 12 March)

Date Brightness Start Highest point End Pass type
(mag) Time Alt. Az. Time Alt. Az. Time Alt. Az.
17 Mar 5.7 21:22:46 10° NNE 21:22:49 10° NNE 21:22:49 10° NNE visible
17 Mar 6.0 23:04:22 10° NNW 23:04:43 12° NNW 23:04:43 12° NNW visible
18 Mar 5.6 21:08:58 10° NNE 21:09:16 10° NNE 21:09:16 10° NNE visible
18 Mar 5.9 22:50:25 10° NNW 22:51:09 14° NNW 22:51:09 14° NNW visible
19 Mar 5.5 20:55:12 10° NNE 20:55:43 11° NNE 20:55:43 11° NNE visible
19 Mar 5.7 22:36:28 10° NNW 22:37:37 16° NNW 22:37:37 16° NNW visible
20 Mar 5.5 20:41:27 10° NNE 20:42:12 11° NE 20:42:12 11° NE visible
20 Mar 5.4 22:22:31 10° NNW 22:24:05 19° NNW 22:24:05 19° NNW visible
21 Mar 5.4 20:27:48 10° NNE 20:28:42 10° NE 20:28:42 10° NE visible
21 Mar 5.2 22:08:34 10° NNW 22:10:36 22° N 22:10:36 22° N visible
